Location: Ailingen
(47.6833°N, 9.5000°E)
Time: 00:35:33
(UTC+00:00)

CZ-4C R/B - Pass Details

Date: 18 November 2025
Orbit: 487 x 1493 km, 63.4° (Epoch: 11 December)

Event Time Altitude Azimuth Distance (km) Brightness Sun altitude
Rises 16:55:44 0° 276° (W) 2,957 6.5 -12.3°
Reaches altitude 10° 16:58:20 10° 293° (WNW) 2,189 5.2 -12.8°
Maximum altitude 17:02:11 21° 344° (NNW) 1,745 3.9 -13.4°
Drops below altitude 10° 17:06:49 10° 32° (NNE) 2,690 4.4 -14.1°
Enters shadow 17:07:06 - 34° (NE) 2,773 4.5 -14.2°
